DECAYED

FENGYUN 1C DEB, 30613 (Decayed)

Orbit data source: Space-Track

FENGYUN 1C DEB, 30613 was space debris in SSO originally from a launch on Mon, 10 May 1999 UTC launched from the Taiyaun Space Center, China (TSC). Fengyun 1C debris stems from the Chinese weather satellite Fengyun-1C, which was intentionally destroyed by a Chinese anti-satellite missile in 2007. This event dramatically increased the amount of space debris, with thousands of trackable fragments posing hazards to satellites and human spaceflight. The Fengyun 1C debris cloud has become a focal point in discussions about space sustainability and the need for international regulations to prevent the creation of new debris.

Loading next visibility...
Identifier
30613, 1999-025AMU
Orbit
Decayed
Country
Flag of CNCN / PRC
Related business
Manufacturer
Unknown
Mission
Decayed spacecraft
Bus & Motor
Unknown
Mass
Unknown
Launch date (UTC)
1999-05-10 (27 years ago)
Launch vehicle
Unknown
Launch site
Taiyaun Space Center, China (TSC)
Object type
Payload
Rocket body
Debris
Shape & HBR
Unknown shape, 0.1 m
Radar Cross Section
Medium (>0.1 m² and <1 m²)

Expand to show TLE details & history
Last TLE update: 4 months ago

TLE from 4 months ago
0 FENGYUN 1C DEB
1 30613U 99025AMU 26106.65768101  .01521682  10639-2  59567-2 0  9997
2 30613  98.2676 247.4417 0014642 349.1197  10.9753 15.87032781 13105
Epoch: 2026-04-16T15:47Z
TLE epoch observation values (Epoch: 2026-04-16T15:47:03.639Z)
Latitude
0.00003°
Longitude
165.87446°
Altitude
304.145 km
Speed
7.731 km/s
True Right ascension
16h 29m 46s
True Declination
0° 00' 00"
Sunlit
Object was in full shadow at epoch
Visualization orbit readout
Latitude
Unknown
Longitude
Unknown
Altitude
Unknown
Speed
Unknown
Apparent Right ascension
Unknown
Apparent Declination
Unknown
Sunlit
N/A
Visualization observer readout
Local Sidereal Time
12:46:30
Azimuth
Unknown
Elevation
Unknown
Doppler factor
Unknown
Orbital elements
Apogee altitude
317.313 km
Perigee altitude
297.735 km
Semi-major axis
6,685.661 km
Eccentricity
0.00146
Inclination
98.2676°
RAAN
247.4417°
Arg. of periapsis
349.1197°
True anomaly
11.0073°
Mean anomaly
10.9753°
Eccentric anomaly
10.99129°
Mean motion
3.97033 °/min
Orbital period
90.67 mins
BSTAR
0.0059567
Loading maneuver chart data...
Computing Atmospheric mass density...

Documentation

Showing up to 5 results
|